Tracking 29606 objects as of 19-Sep-2024
HD Live streaming from Space Station
objects crossing your sky now

GAMA-ALPHA

Track GAMA-ALPHA now!
10-day predictions


NORAD ID: 55084
Int'l Code: 2023-001CD
Perigee: 474.8 km
Apogee: 491.2 km
Inclination: 97.4 °
Period: 94.1 minutes
Semi major axis: 6853 km
RCS: Unknown
Launch date: January 3, 2023
Source: Lithuania (LTU)
Launch site: AIR FORCE EASTERN TEST RANGE (AFETR)
Your satellite tracking list
Your tracking list is empty




NASA's NSSDC Master Catalog

Two Line Element Set (TLE):
1 55084U 23001CD  24262.71049612  .00026378  00000-0  90735-3 0  9997
2 55084  97.4136 322.6524 0011912 186.0531 174.0567 15.29984658 94961
Source of the keplerian elements: AFSPC